This demonstration page uses our WeatherBlox Daily Observations layout. Learn more.

Hourly Observations for February 28, 2020

Temp ( °F °C ) Dew Point ( °F °C ) Humidity (%) Winds ( mph kmh ) Pressure ( in mb ) Visibility ( mi km ) Precip ( " mm )
12:54 am 00:54 Mostly Clear 28 -2.2 22 -5.6 78 78 SW 3 6 30.16 1021 10 16.0934 0 0
1:54 am 01:54 Mostly Clear 31 -0.6 24 -4.4 76 76 W 8 13 30.15 1021 10 16.0934 0 0
2:54 am 02:54 Cloudy 31 -0.6 24 -4.4 76 76 W 5 7 30.14 1021 10 16.0934 0 0
3:54 am 03:54 Cloudy 33 0.6 26 -3.3 75 75 W 3 6 30.12 1020 10 16.0934 0 0
4:54 am 04:54 Mostly Cloudy 33 0.6 26 -3.3 75 75 W 3 6 30.12 1020 10 16.0934 0 0
5:54 am 05:54 Clear 30 -1.1 24 -4.4 79 79 W 3 6 30.14 1021 10 16.0934 0 0
6:54 am 06:54 Mostly Cloudy 31 -0.6 25 -3.9 79 79 WNW 3 6 30.15 1021 10 16.0934 0 0
7:54 am 07:54 Mostly Cloudy 35 1.7 26 -3.3 70 70 WNW 10 17 30.17 1022 10 16.0934 0 0
8:54 am 08:54 Cloudy 38 3.3 27 -2.8 65 65 NW 10 17 30.19 1022 10 16.0934 0 0
9:54 am 09:54 Mostly Cloudy 41 5 29 -1.7 62 62 NW 8 13 30.19 1022 10 16.0934 0 0
10:54 am 10:54 Sunny 48 8.9 30 -1.1 50 50 NW 8 13 30.17 1022 10 16.0934 0 0
11:54 am 11:54 Mostly Cloudy 51 10.6 29 -1.7 43 43 NNW 12 19 30.17 1022 10 16.0934 0 0
12:54 pm 12:54 Sunny 53 11.7 29 -1.7 40 40 N 15 24 30.17 1022 10 16.0934 0 0
1:54 pm 13:54 Partly Cloudy 55 12.8 29 -1.7 37 37 NW 10 17 30.16 1021 10 16.0934 0 0
2:54 pm 14:54 Mostly Cloudy 53 11.7 28 -2.2 38 38 NNW 14 22 30.16 1021 10 16.0934 0 0
3:54 pm 15:54 Mostly Sunny 53 11.7 27 -2.8 37 37 NW 10 17 30.17 1022 10 16.0934 0 0
4:52 pm 16:52 Mostly Sunny 52 11 30 -1 44 44 NNE 15 24 30.17 1022 10 16.0934 0 0
4:54 pm 16:54 Mostly Sunny 52 11.1 30 -1.1 43 43 NE 12 19 30.18 1022 10 16.0934 0 0
5:54 pm 17:54 Sunny 47 8.3 31 -0.6 54 54 NE 12 19 30.2 1023 10 16.0934 0 0
6:54 pm 18:54 Clear 38 3.3 29 -1.7 70 70 NE 8 13 30.24 1024 10 16.0934 0 0
7:54 pm 19:54 Clear 31 -0.6 26 -3.3 82 82 NE 5 7 30.26 1025 10 16.0934 0 0
8:54 pm 20:54 Clear 30 -1.1 25 -3.9 82 82 NNE 6 9 30.27 1025 10 16.0934 0 0
9:54 pm 21:54 Clear 31 -0.6 27 -2.8 85 85 E 3 6 30.27 1025 10 16.0934 0 0
10:54 pm 22:54 Clear 31 -0.6 27 -2.8 85 85 SSW 3 6 30.26 1025 10 16.0934 0 0
11:54 pm 23:54 Clear 29 -1.7 24 -4.4 82 82 Calm 30.24 1024 10 16.0934 0 0

Powered by AerisWeather